FW1302 Weather Reports


Display with metric or nautical units.
time (UTC)temp
F
wind
direction
speed
MPH
gust
MPH
rain 1hr
in
rain 24hr
in
rain mn
in
humidity
%
barometer
mb
20260906030111 63 319 5.0 9.0 0.00 0.00 0.00 77 1026.1
20260906025112 63 360 0.0 0.0 0.00 0.00 0.00 77 1026.2
20260906024210 63 193 0.0 4.0 0.00 0.00 0.00 74 1026.1
20260906023215 65 180 0.0 0.0 0.00 0.00 0.00 73 1026.0
20260906022210 67 270 0.0 0.0 0.00 0.00 0.00 73 1025.9
20260906021211 68 270 1.0 1.0 0.00 0.00 0.00 69 1025.9
20260906020209 67 270 0.0 1.0 0.00 0.00 0.00 71 1025.8
20260906015211 67 270 3.0 4.0 0.00 0.00 0.00 68 1025.8
20260906014311 74 274 4.0 4.0 0.00 0.00 0.00 50 1025.8
20260906013312 75 337 0.0 0.0 0.00 0.00 0.00 48 1026.0
20260906012314 75 337 0.0 0.0 0.00 0.00 0.00 49 1026.0
20260906011411 75 337 0.0 0.0 0.00 0.00 0.00 50 1026.0
20260906010412 74 270 0.0 0.0 0.00 0.00 0.00 53 1025.9
20260906005412 73 270 0.0 0.0 0.00 0.00 0.00 56 1026.0
20260906004509 70 270 1.0 1.0 0.00 0.00 0.00 60 1026.2
20260906003412 70 270 2.0 2.0 0.00 0.00 0.00 61 1026.4
20260906001510 68 270 3.0 5.0 0.00 0.00 0.00 64 1026.1
20260906000511 67 270 2.0 4.0 0.00 0.00 0.00 64 1026.2
20260905235610 68 249 6.0 7.0 0.00 0.00 0.00 65 1026.3
20260905234612 68 225 3.0 4.0 0.00 0.00 0.00 64 1026.4
20260905233612 67 247 4.0 5.0 0.00 0.00 0.00 68 1026.3
20260905231709 68 225 2.0 3.0 0.00 0.00 0.00 65 1026.4
20260905230711 68 218 1.0 3.0 0.00 0.00 0.00 66 1026.4
20260905225711 68 225 0.0 0.0 0.00 0.00 0.00 67 1026.3
20260905223813 67 247 1.0 2.0 0.00 0.00 0.00 71 1026.5
20260905222811 66 202 0.0 0.0 0.00 0.00 0.00 69 1026.4
20260905221812 67 225 3.0 4.0 0.00 0.00 0.00 66 1026.6
20260905220812 67 202 0.0 3.0 0.00 0.00 0.00 64 1026.4
20260905215912 67 225 2.0 3.0 0.00 0.00 0.00 68 1026.4
20260905215011 66 202 1.0 3.0 0.00 0.00 0.00 73 1026.5
20260905214011 66 225 3.0 3.0 0.00 0.00 0.00 74 1026.4
20260905213012 66 247 1.0 2.0 0.00 0.00 0.00 70 1026.6
20260905211011 67 225 2.0 2.0 0.00 0.00 0.00 63 1026.5
20260905210011 68 270 3.0 5.0 0.00 0.00 0.00 58 1026.5
20260905205012 69 270 2.0 4.0 0.00 0.00 0.00 56 1026.5
20260905204911 69 270 2.0 3.0 0.00 0.00 0.00 56 1026.6
20260905203912 68 202 0.0 0.0 0.00 0.00 0.00 57 1026.7
20260905203011 68 48 0.0 0.0 0.00 0.00 0.00 58 1026.7
20260905202109 69 44 9.0 11.0 0.00 0.00 0.00 60 1026.5
20260905201112 69 31 8.0 13.0 0.00 0.00 0.00 59 1026.5
20260905200111 67 30 4.0 5.0 0.00 0.00 0.00 60 1026.8
20260905195113 66 45 3.0 4.0 0.00 0.00 0.00 64 1026.8
20260905194109 66 59 3.0 5.0 0.00 0.00 0.00 65 1027.0
20260905193112 67 8 3.0 6.0 0.00 0.00 0.00 66 1027.2
20260905191112 65 45 7.0 10.0 0.00 0.00 0.00 70 1027.3
20260905190111 64 45 7.0 9.0 0.00 0.00 0.00 73 1027.6
20260905185110 63 45 2.0 3.0 0.00 0.00 0.00 73 1027.7
20260905184111 63 45 7.0 9.0 0.00 0.00 0.00 74 1027.8
20260905182212 62 22 3.0 4.0 0.00 0.00 0.00 77 1028.1
20260905181211 62 45 6.0 7.0 0.00 0.00 0.00 77 1028.1
20260905174309 60 45 6.0 7.0 0.00 0.00 0.00 82 1028.3
20260905173311 60 45 5.0 7.0 0.00 0.00 0.00 82 1028.4
20260905172312 60 45 7.0 8.0 0.00 0.00 0.00 82 1028.4
20260905171311 60 24 4.0 7.0 0.00 0.00 0.00 84 1028.4
20260905170311 59 45 4.0 5.0 0.00 0.00 0.00 86 1028.6
20260905165409 59 22 3.0 4.0 0.00 0.00 0.00 88 1028.4
20260905164413 59 45 1.0 2.0 0.00 0.00 0.00 90 1028.7
20260905163411 58 67 0.0 1.0 0.00 0.00 0.00 92 1028.7
20260905163310 58 67 1.0 1.0 0.00 0.00 0.00 92 1028.6
20260905162313 58 67 1.0 1.0 0.00 0.00 0.00 91 1028.6
20260905155410 56 67 0.0 0.0 0.00 0.00 0.00 93 1028.6
20260905154410 56 67 0.0 0.0 0.00 0.00 0.00 92 1028.5
20260905153509 56 67 0.0 1.0 0.00 0.00 0.00 93 1028.7
20260905152513 55 67 0.0 1.0 0.00 0.00 0.00 94 1028.8
20260905151611 55 67 0.0 1.0 0.00 0.00 0.00 94 1028.7
20260905150611 55 67 0.0 1.0 0.00 0.00 0.00 94 1028.7
20260905145612 55 67 1.0 2.0 0.00 0.00 0.00 95 1028.7
20260905144610 54 67 1.0 2.0 0.00 0.00 0.00 95 1028.6
20260905143611 54 67 1.0 2.0 0.00 0.00 0.00 94 1028.6
20260905142709 54 67 0.0 0.0 0.00 0.00 0.00 95 1028.5
20260905141711 54 67 1.0 1.0 0.00 0.00 0.00 94 1028.6
20260905140711 54 67 1.0 2.0 0.00 0.00 0.00 94 1028.6
20260905135712 54 67 0.0 1.0 0.00 0.00 0.00 93 1028.4
20260905134712 54 67 0.0 0.0 0.00 0.00 0.00 93 1028.3
20260905132810 54 67 1.0 1.0 0.00 0.00 0.00 94 1028.1
20260905131813 54 67 2.0 2.0 0.00 0.00 0.00 94 1028.1
20260905130909 54 67 2.0 2.0 0.00 0.00 0.00 93 1028.1
20260905125912 54 67 2.0 2.0 0.00 0.00 0.00 93 1028.1
20260905123913 54 67 0.0 0.0 0.00 0.00 0.00 94 1028.0
20260905121910 54 67 0.0 0.0 0.00 0.00 0.00 93 1028.2
20260905121810 54 67 0.0 0.0 0.00 0.00 0.00 92 1028.1
20260905120812 54 67 0.0 1.0 0.00 0.00 0.00 92 1028.0
20260905115813 54 67 1.0 2.0 0.00 0.00 0.00 93 1028.0
20260905112811 54 67 1.0 2.0 0.00 0.00 0.00 94 1027.8
20260905110909 54 67 1.0 1.0 0.00 0.00 0.00 95 1027.8
20260905104909 54 67 0.0 0.0 0.00 0.00 0.00 94 1027.7
20260905103912 54 67 0.0 0.0 0.00 0.00 0.00 94 1027.8
20260905103814 54 67 0.0 0.0 0.00 0.00 0.00 95 1027.8
20260905102911 54 67 0.0 0.0 0.00 0.00 0.00 95 1027.6
20260905102009 54 67 0.0 0.0 0.00 0.00 0.00 93 1027.7
20260905101010 54 67 0.0 0.0 0.00 0.00 0.00 93 1027.8
20260905100911 54 67 0.0 0.0 0.00 0.00 0.00 94 1027.8
20260905095910 54 67 0.0 1.0 0.00 0.00 0.00 93 1027.7
20260905094910 54 360 0.0 0.0 0.00 0.00 0.00 93 1027.8
20260905093910 54 360 0.0 0.0 0.00 0.00 0.00 93 1027.8
20260905092911 55 360 0.0 0.0 0.00 0.00 0.00 94 1027.7
20260905091911 55 360 0.0 0.0 0.00 0.00 0.00 93 1027.8
20260905091810 55 360 0.0 0.0 0.00 0.00 0.00 93 1027.9
20260905085811 55 360 0.0 0.0 0.00 0.00 0.00 94 1027.7
20260905084812 55 360 0.0 0.0 0.00 0.00 0.00 94 1027.7
20260905083811 55 360 0.0 0.0 0.00 0.00 0.00 93 1027.6
20260905083709 55 360 0.0 0.0 0.00 0.00 0.00 93 1027.6
20260905082711 55 315 0.0 0.0 0.00 0.00 0.00 93 1027.6
20260905081714 55 315 0.0 0.0 0.00 0.00 0.00 93 1027.5
20260905080712 55 315 0.0 0.0 0.00 0.00 0.00 94 1027.5
20260905075709 55 315 0.0 2.0 0.00 0.00 0.00 93 1027.5
20260905074710 55 315 0.0 0.0 0.00 0.00 0.00 93 1027.5
20260905072710 55 315 0.0 0.0 0.00 0.00 0.00 91 1027.3
20260905071710 56 315 0.0 0.0 0.00 0.00 0.00 92 1027.3
20260905070809 56 315 0.0 1.0 0.00 0.00 0.00 91 1027.2
20260905065822 56 315 0.0 1.0 0.00 0.00 0.00 91 1027.1
20260905063819 56 135 1.0 2.0 0.00 0.00 0.00 93 1027.0
20260905062820 56 143 3.0 3.0 0.00 0.00 0.00 93 1027.0
20260905060820 55 157 1.0 1.0 0.00 0.00 0.00 92 1026.9
20260905055919 56 157 0.0 0.0 0.00 0.00 0.00 93 1026.9
20260905055018 56 157 1.0 2.0 0.00 0.00 0.00 93 1026.8
20260905054020 56 157 3.0 3.0 0.00 0.00 0.00 91 1026.8
20260905053118 56 157 0.0 1.0 0.00 0.00 0.00 91 1026.7
20260905052119 56 157 0.0 0.0 0.00 0.00 0.00 90 1026.6
20260905050119 57 180 0.0 0.0 0.00 0.00 0.00 90 1026.7
20260905045119 57 180 0.0 1.0 0.00 0.00 0.00 91 1026.7
20260905044122 58 225 0.0 0.0 0.00 0.00 0.00 90 1026.6
20260905042220 58 270 0.0 1.0 0.00 0.00 0.00 88 1026.4
20260905041219 58 292 2.0 4.0 0.00 0.00 0.00 87 1026.2
20260905040219 58 225 2.0 2.0 0.00 0.00 0.00 87 1026.1
20260905035220 59 270 0.0 0.0 0.00 0.00 0.00 85 1026.2
20260905033335 60 270 3.0 4.0 0.00 0.00 0.00 84 1026.0
20260905031418 60 225 2.0 3.0 0.00 0.00 0.00 83 1025.8
20260905030420 60 225 3.0 5.0 0.00 0.00 0.00 83 1025.7